User: anonymous   Login
Location: Morgantown
(40.9734°N, 80.6323°W)
Time: 11:32:36
(UTC+00:00)
Language:

NOAA 18 - Orbit

View from above orbital plane
View from above orbital plane
View from above satellite
View from above satellite

Ground track
Ground track

The orbit data is extracted from the following two-line orbital elements,

1 28654U 05018A   21267.11135857  .00000123  00000-0  90453-4 0  9999
2 28654  98.9850 332.3263 0014212   8.1471 351.9928 14.12640379842467
Epoch (UTC): 24 September 2021 02:40:21
Eccentricity: 0.0014212
inclination: 98.9850°
perigee height: 840 km
apogee height: 860 km
right ascension of ascending node: 332.3263°
argument of perigee: 8.1471°
revolutions per day: 14.12640379
mean anomaly at epoch: 351.9928°
orbit number at epoch: 84246

The dashed part of the orbit path shows where the satellite is in the earth's shadow,  

DLR